This demonstration page uses our WeatherBlox Daily Observations layout. Learn more.

Left ArrowRight Arrow

Hourly Observations for April 20, 2021

Temp ( °F °C ) Dew Point ( °F °C ) Humidity (%) Winds ( mph kmh ) Pressure ( in mb ) Visibility ( mi km ) Precip ( " mm )
12:53 am 00:53 Clear 50 10 44 6.7 80 80 Calm 29.98 1015 10 16 0.00 0.00
1:53 am 01:53 Clear 51 10.6 45 7.2 80 80 Calm 29.98 1015 10 16 0.00 0.00
2:53 am 02:53 Clear 52 11.1 47 8.3 83 83 Calm 29.98 1015 10 16 0.00 0.00
3:53 am 03:53 Clear 49 9.4 45 7.2 86 86 Calm 29.98 1015 10 16 0.00 0.00
4:53 am 04:53 Clear 49 9.4 45 7.2 86 86 Calm 30.00 1016 10 16 0.00 0.00
5:53 am 05:53 Clear 47 8.3 44 6.7 90 90 NNE 3 6 30.00 1016 10 16 0.00 0.00
6:53 am 06:53 Clear 46 7.8 45 7.2 96 96 NNE 3 6 29.99 1016 10 16 0.00 0.00
7:53 am 07:53 Sunny 48 8.9 45 7.2 89 89 Calm 30.01 1016 10 16 0.00 0.00
8:53 am 08:53 Sunny 53 11.7 48 8.9 83 83 Calm 30.02 1017 10 16 0.00 0.00
9:53 am 09:53 Sunny 58 14.4 48 8.9 70 70 Calm 30.02 1017 10 16 0.00 0.00
10:53 am 10:53 Sunny 63 17.2 44 6.7 50 50 Calm 30.02 1017 10 16 0.00 0.00
11:53 am 11:53 Sunny 67 19.4 42 5.6 41 41 Calm 30.02 1017 10 16 0.00 0.00
12:53 pm 12:53 Sunny 70 21.1 41 5 35 35 SSE 5 7 30.00 1016 10 16 0.00 0.00
1:53 pm 13:53 Mostly Cloudy 72 22.2 41 5 33 33 SW 10 17 29.97 1015 10 16 0.00 0.00
2:53 pm 14:53 Partly Cloudy 74 23.3 44 6.7 34 34 undefined N/A 29.95 1014 10 16 0.00 0.00
3:53 pm 15:53 Partly Cloudy 73 22.8 40 4.4 30 30 S 10 17 29.92 1013 10 16 0.00 0.00
4:53 pm 16:53 Sunny 74 23.3 39 3.9 28 28 Calm 29.90 1012 10 16 0.00 0.00
5:53 pm 17:53 Mostly Cloudy 74 23.3 40 4.4 29 29 S 7 11 29.90 1012 10 16 0.00 0.00
6:53 pm 18:53 Mostly Cloudy 74 23.3 38 3.3 27 27 S 6 9 29.89 1012 10 16 0.00 0.00
7:53 pm 19:53 Sunny 71 21.7 40 4.4 32 32 SW 5 7 29.89 1012 10 16 0.00 0.00
8:53 pm 20:53 Clear 64 17.8 45 7.2 50 50 Calm 29.90 1012 10 16 0.00 0.00
9:53 pm 21:53 Clear 58 14.4 46 7.8 65 65 Calm 29.91 1013 10 16 0.00 0.00
10:53 pm 22:53 Mostly Clear 55 12.8 48 8.9 77 77 Calm 29.93 1014 10 16 0.00 0.00
11:53 pm 23:53 Mostly Clear 59 15 47 8.3 64 64 SSW 3 6 29.93 1013 10 16 0.00 0.00

Powered by AerisWeather